Flag for Germany Weather past 2 weeks in Ratingen, North Rhine-Westphalia, Germany

Now
57 °F

Partly sunny.


Feels Like: 55 °F
Forecast: 49 / 68 °F
Wind: 9 mph from West

Location: Duesseldorf

Current Time: May 30, 2015 at 7:40:12 PM

Latest Report: May 30, 2015 at 6:50 PM


Visibility: N/A

Pressure: 30.04 "Hg

Humidity: 63%

Dew point: 45 °F

Location of RatingenLocation

Historic Weather in Ratingen — Graph

°F

Ratingen temperature yesterday

Maximum temperature yesterday: 63 °F (at 3:20 PM)
Minimum temperature yesterday: 48 °F (at 11:20 PM)
Average temperature yesterday: 56 °F

Past Weeks' High & Low Weather Summary

 TemperatureHumidityPressure
High70 °F (May 18, 2:50 PM)100% (May 16, 3:50 PM)30.33 "Hg (May 16, 3:50 PM)
Low37 °F (May 21, 4:20 AM)33% (May 22, 3:50 PM)29.65 "Hg (May 18, 6:20 PM)
Average55 °F68%30.05 "Hg
* Reported May 15 6:20 PM — May 30 6:20 PM, Ratingen, Weather by CustomWeather, © 2015

Note: Actual official high and low records may vary slightly from our data, if they occured in-between our weather recording intervals... More about our weather records

Advertising

Ratingen weather history for previous 24 hours

 ConditionsComfort  
Time TempWeatherWind HumidityBarometerVisibility
6:20 PM
Sat, May 30
55 °FPartly sunny.9 mph67%30.01 "HgN/A
5:50 PM55 °FScattered clouds.10 mph67%30.01 "HgN/A
5:20 PM55 °FBroken clouds.10 mph67%30.01 "HgN/A
4:50 PM50 °FScattered showers. Broken clouds.5 mph82%30.01 "HgN/A
4:20 PM54 °FSprinkles. Broken clouds.14 mph72%30.01 "HgN/A
3:50 PM54 °FScattered showers. Partly sunny.8 mph72%30.01 "HgN/A
3:20 PM54 °FScattered showers. Scattered clouds.8 mph77%30.01 "HgN/A
2:50 PM48 °FSprinkles. Broken clouds.9 mph87%29.98 "HgN/A
2:20 PM48 °FSprinkles. Partly sunny.8 mph82%30.01 "HgN/A
1:50 PM46 °FSprinkles. Broken clouds.9 mph87%30.01 "HgN/A
1:20 PM48 °FSprinkles. Broken clouds.17 mph87%29.98 "HgN/A
12:50 PM50 °FSprinkles. Scattered clouds.3 mph88%29.95 "HgN/A
12:20 PM54 °FSprinkles. Broken clouds.7 mph67%29.95 "HgN/A
11:50 AM54 °FSprinkles. Scattered clouds.9 mph67%29.92 "HgN/A
11:20 AM54 °FSprinkles. Scattered clouds.15 mph63%29.92 "HgN/A
10:50 AM55 °FScattered clouds.17 mph63%29.92 "HgN/A
10:20 AM54 °FScattered clouds.15 mph63%29.92 "HgN/A
9:50 AM55 °FScattered clouds.13 mph63%29.92 "HgN/A
9:20 AM54 °FPassing clouds.12 mph77%29.89 "HgN/A
8:50 AM52 °FPassing clouds.12 mph82%29.89 "HgN/A
8:20 AM50 °FPassing clouds.10 mph88%29.89 "HgN/A
7:50 AM50 °FScattered clouds.9 mph88%29.89 "HgN/A
7:20 AM50 °FScattered clouds.9 mph88%29.86 "HgN/A
6:50 AM48 °FPassing clouds.7 mph94%29.86 "HgN/A
6:20 AM48 °FPassing clouds.8 mph87%29.86 "HgN/A
5:50 AM48 °FPassing clouds.7 mph94%29.83 "HgN/A
5:20 AM48 °FPassing clouds.7 mph94%29.83 "HgN/A
4:50 AM48 °FPassing clouds.7 mph94%29.83 "HgN/A
4:20 AM48 °FPassing clouds.8 mph94%29.83 "HgN/A
3:50 AM48 °FPartly cloudy.7 mph94%29.83 "HgN/A
3:20 AM48 °FPartly cloudy.8 mph94%29.80 "HgN/A
2:50 AM48 °FPartly cloudy.7 mph94%29.80 "HgN/A
2:20 AM48 °FPassing clouds.6 mph94%29.80 "HgN/A
1:50 AM48 °FPassing clouds.8 mph94%29.80 "HgN/A
1:20 AM48 °FPartly cloudy.10 mph94%29.80 "HgN/A
12:50 AM48 °FDrizzle. Overcast.12 mph94%29.80 "HgN/A
12:20 AM48 °FDrizzle. Mostly cloudy.13 mph94%29.80 "HgN/A
11:50 PM
Fri, May 29
48 °FDrizzle. Overcast.12 mph94%29.77 "HgN/A
11:20 PM48 °FDrizzle. Overcast.12 mph94%29.80 "HgN/A
10:20 PM50 °FLight rain. Partly sunny.13 mph82%29.80 "HgN/A
9:50 PM57 °FLight rain. Partly sunny.13 mph63%29.77 "HgN/A
9:20 PM57 °FLight rain. Partly sunny.18 mph63%29.77 "HgN/A
8:50 PM57 °FLight rain. Partly sunny.20 mph63%29.74 "HgN/A
8:20 PM59 °FLight rain. Partly sunny.13 mph55%29.74 "HgN/A
7:50 PM59 °FPartly sunny.13 mph51%29.74 "HgN/A
7:20 PM61 °FPartly sunny.15 mph48%29.74 "HgN/A
Weather by CustomWeather, © 2015

See weather overviewHow to use our weather pages